This is the latest recevied weather packets stored in our database for station/object AB4KY. If no packets are shown the sender has not sent any weather packets the latest 10 day(s).
| Time | Temp. | Humidity | Pressure | Rain* | Wind** | Luminosity | Snow |
|---|---|---|---|---|---|---|---|
| 1778200681 | 12.22° C | 62% | 1012.4 hPa | 0 mm | - | 0 W/m² | - |
| 1778200379 | 12.22° C | 61% | 1012.4 hPa | 0 mm | - | 0 W/m² | - |
| 1778200075 | 12.78° C | 62% | 1012.4 hPa | 0 mm | - | 1 W/m² | - |
| 1778199773 | 12.78° C | 62% | 1012.4 hPa | 0 mm | - | 2 W/m² | - |
| 1778199469 | 12.78° C | 63% | 1012.3 hPa | 0 mm | - | 4 W/m² | - |
| 1778199164 | 13.33° C | 62% | 1012.2 hPa | 0 mm | - | 6 W/m² | - |
| 1778198861 | 13.33° C | 59% | 1012.4 hPa | 0 mm | - | 9 W/m² | - |
| 1778198558 | 13.89° C | 57% | 1012.3 hPa | 0 mm | - | 10 W/m² | - |
| 1778198254 | 13.89° C | 56% | 1012.3 hPa | 0 mm | - | 11 W/m² | - |
| 1778197952 | 13.89° C | 53% | 1012.1 hPa | 0 mm | - | 12 W/m² | - |
| 1778197649 | 14.44° C | 49% | 1012.2 hPa | 0 mm | - | 13 W/m² | - |
| 1778197345 | 14.44° C | 48% | 1012 hPa | 0 mm | - | 15 W/m² | - |
| 1778197041 | 14.44° C | 49% | 1012.2 hPa | 0 mm | - | 16 W/m² | - |
| 1778196734 | 15° C | 49% | 1012.2 hPa | 0 mm | - | 17 W/m² | - |
| 1778196431 | 15° C | 47% | 1012.2 hPa | 0 mm | - | 17 W/m² | - |
| 1778196128 | 15° C | 47% | 1012.2 hPa | 0 mm | - | 18 W/m² | - |
| 1778195824 | 15° C | 44% | 1012.3 hPa | 0 mm | - | 18 W/m² | - |
| 1778195521 | 15.56° C | 45% | 1012.4 hPa | 0 mm | - | 21 W/m² | - |
| 1778195218 | 15.56° C | 41% | 1012.4 hPa | 0 mm | - | 20 W/m² | - |
| 1778194916 | 16.11° C | 40% | 1012.3 hPa | 0 mm | - | 48 W/m² | - |
| 1778194615 | 15.56° C | 43% | 1012.3 hPa | 0 mm | - | 57 W/m² | - |
| 1778194312 | 15.56° C | 40% | 1012.1 hPa | 0 mm | - | 75 W/m² | - |
| 1778194007 | 15.56° C | 42% | 1012.4 hPa | 0 mm | - | 82 W/m² | - |
| 1778193704 | 15.56° C | 44% | 1012.5 hPa | 0 mm | - | 29 W/m² | - |
| 1778193400 | 15.56° C | 41% | 1012.4 hPa | 0 mm | - | 23 W/m² | - |
* Rain latest hour (hover to see other rain measurements)
** Current wind speed in m/s (hover to see current wind gust speed)